Location: Eaton
(41.3139°N, 82.0207°W)
Time: 02:15:23
(UTC+00:00)

Cosmos 1844 Rocket - Pass Details

Date: 17 June 2021
Orbit: 823 x 846 km, 71.0° (Epoch: 02 August)

Event Time Altitude Azimuth Distance (km) Brightness Sun altitude
Rises 03:23:59 0° 334° (NNW) 3,410 7.5 -19.1°
Reaches altitude 10° 03:26:26 10° 333° (NNW) 2,473 6.4 -19.3°
Maximum altitude 03:32:06 76° 249° (WSW) 876 2.7 -19.9°
Enters shadow 03:34:26 37° 171° (S) 1,294 3.2 -20.1°
